Regional Weather Roundup
Issued by NWS

Home | Current Version | Previous Version | Graphics & Text | Print | Product List | Glossary On
Versions: 1 2 3 4 5 6 7 8 9 10 11 12 13 14 15 16 17 18 19 20 21 22 23 24 25 26 27 28 29 30 31 32 33 34 35 36 37 38 39 40 41 42 43 44 45 46 47 48 49 50
494
ASUS45 KBOU 251307
RWRCO

WEATHER ROUNDUP FOR COLORADO
NATIONAL WEATHER SERVICE DENVER/BOULDER CO
700 AM MDT WED MAY 25 2016

NOTE: "FAIR" INDICATES FEW OR NO CLOUDS BELOW 12000 FEET WITH NO
SIGNIFICANT WEATHER AND/OR OBSTRUCTIONS TO VISIBILITY.

COZ001>005-013-030-031-251400-
...NORTHWEST COLORADO...

CITY           SKY/WX    TMP DP  RH WIND       PRES   REMARKS
CRAIG          FAIR      44  37  76 VRB3      30.06R
HAYDEN         PTSUNNY   43  34  70 E10       30.06S
MEEKER           N/A     44  35  70 NE7       30.07R
MOUNT WERNER   NOT AVBL
STEAMBOAT SPGS PTSUNNY   42  34  73 E10       30.08S
WALDEN         FAIR      37  30  75 S10       30.10F
$$

COZ006>008-011-251400-
...WEST CENTRAL VALLEYS...

CITY           SKY/WX    TMP DP  RH WIND       PRES   REMARKS
GRAND JUNCTION FAIR      48  29  47 E6        30.03R
MONTROSE       FAIR      47  26  44 SE6       30.10R
EAGLE          PTSUNNY   43  30  61 E6        30.11S
RIFLE          FAIR      47  34  60 CALM      30.06R
DELTA          FAIR      54  28  37 N5        30.07R
NUCLA          NOT AVBL
$$

COZ017>023-064>068-251400-
...SOUTHWEST COLORADO...

CITY           SKY/WX    TMP DP  RH WIND       PRES   REMARKS
DURANGO        FAIR      37  23  56 CALM      30.15R
CORTEZ         FAIR      42  25  50 NE8       30.12R
PAGOSA SPRINGS FAIR      41  19  39 NE3       30.19S
TELLURIDE      FAIR      40  16  37 CALM      30.23R
WOLF CREEK PAS FAIR      30  12  47 SW10      30.34R WCI  21
$$

COZ009-010-012-014-032>034-037-058>063-251400-
...CENTRAL COLORADO...

CITY           SKY/WX    TMP DP  RH WIND       PRES   REMARKS
ASPEN          FAIR      43  25  49 SE5       30.11R
BUENA VISTA    FAIR      41  19  41 CALM      30.14R
COPPER MTN     NOT AVBL
BERTHOUD PASS  FAIR      27  18  69 W23G29    30.23R WCI  12
COTTONWOOD PAS FAIR      45   9  23 W8G18     30.20R
GUNNISON       FAIR      39  18  41 N8        30.18R
KREMMLING      FAIR      41  30  65 CALM      30.12S
LEADVILLE      FAIR      38  13  35 S6        30.18R
MONARCH PASS   FAIR      30  12  47 W23G29    30.38S WCI  17
SALIDA         FAIR      49  17  27 SW5       30.20R
SUNLIGHT       FAIR      34  25  69 CALM      30.25R
WILKERSON PASS FAIR      32  12  43 SW14G29   30.24R WCI  22
$$

COZ069>075-251400-
...SAN LUIS VALLEY/SANGRE DE CRISTO MOUNTAINS...

CITY           SKY/WX    TMP DP  RH WIND       PRES   REMARKS
ALAMOSA        FAIR      43  19  38 E9        30.14R
LA VETA PASS   FAIR      39  10  30 S13G26    30.20S
SAGUACHE       NOT AVBL
$$

COZ035-036-038>040-251400-
...NORTHERN COLORADO FRONT RANGE...

CITY           SKY/WX    TMP DP  RH WIND       PRES   REMARKS
DENVER INTL AP FAIR      51  41  68 CALM      30.00R
DMNS CITY PARK   N/A     53  41  65 SE6       30.00R
AURORA         MOSUNNY   48  47  95 SE3       30.02R
FRONT RANGE AP NOT AVBL
ERIE MUNI ARPT FAIR      48  44  85 CALM      30.00R
BOULDER MUN AP FAIR      52  32  46 S3        29.99R
CENTENNIAL     FAIR      50  42  74 SW3       30.02R
BROOMFIELD     MOSUNNY   50  39  66 SW3       30.01R
FORT COLLINS   FAIR      46  41  81 CALM      30.00R
LONGMONT       FAIR      48  42  79 CALM      30.01R HAZE
$$

COZ041-046-047-076>085-087-088-251400-
...PIKES PEAK/PALMER DIVIDE AND SOUTHERN FOOTHILLS...

CITY           SKY/WX    TMP DP  RH WIND       PRES   REMARKS
COLO. SPRINGS  FAIR      60  20  21 NW15G23   30.01R
A. F. ACADEMY  FAIR      52  37  58 N7        30.03R
SCHRIEVER AFB  NOT AVBL
ELLICOTT       FAIR     N/A N/A N/A N8        30.00R
FALCON         FAIR      53  35  50 N14G23    30.04S
FORT CARSON    FAIR      55  26  32 W7        29.99R
LIMON          CLOUDY    51  50  96 NW13      30.00R FOG
MONUMENT HILL  FAIR      43  36  75 SW6       30.08R
TRINIDAD       FAIR      53  18  25 W9        30.00R
$$

COZ042>045-048>051-090-091-251400-
...NORTHEAST COLORADO...

CITY           SKY/WX    TMP DP  RH WIND       PRES   REMARKS
GREELEY ARPT   FAIR      50  43  76 SE6       29.99R
AKRON          CLOUDY    54  51  90 SE8       29.97R
BURLINGTON     FOG       56  54  93 NE12      29.94R VSB 1/4
WRAY           NOT AVBL
STERLING       FAIR      50  50 100 NW6       29.96R
HOLYOKE        FAIR      59  52  77 W3        29.94R
FORT MORGAN    PTSUNNY   51  47  87 N6        29.99R
$$

COZ086-089-092>099-251400-
...SOUTHEAST COLORADO...

CITY           SKY/WX    TMP DP  RH WIND       PRES   REMARKS
PUEBLO         FAIR      52  29  41 VRB3      29.93R
LA JUNTA       FAIR      55  27  34 N7        29.93R
LAMAR          FAIR      55  36  48 W3        29.89R
SPRINGFIELD      N/A     59  27  29 W10       29.92R
$$




USA.gov is the U.S. government's official web portal to all federal, state and local government web resources and services.